Time,TemperatureF,DewpointF,PressureIn,WindDirection,WindDirectionDegrees,WindSpeedMPH,WindSpeedGustMPH,Humidity,HourlyPrecipIn,Conditions,Clouds,dailyrainin,SoftwareType,DateUTC
2013-06-23 00:07:00,52.6,53.0,29.83,SE,143,0.0,-999.0,100,-99.99,,,0.00,weatherlink.com 1.10,2013-06-23 07:07:00,
2013-06-23 00:22:00,52.5,53.0,29.83,SE,143,0.0,-999.0,100,-99.99,,,0.00,weatherlink.com 1.10,2013-06-23 07:22:00,
2013-06-23 00:37:00,52.3,52.0,29.83,SE,143,0.0,-999.0,100,-99.99,,,0.00,weatherlink.com 1.10,2013-06-23 07:37:00,
2013-06-23 00:52:00,52.3,52.0,29.82,SE,143,0.0,-999.0,100,-99.99,,,0.00,weatherlink.com 1.10,2013-06-23 07:52:00,
2013-06-23 01:08:00,52.3,52.0,29.82,SE,143,0.0,-999.0,100,-99.99,,,0.00,weatherlink.com 1.10,2013-06-23 08:08:00,
2013-06-23 01:23:00,52.0,52.0,29.82,SE,143,0.0,-999.0,100,-99.99,,,0.00,weatherlink.com 1.10,2013-06-23 08:23:00,
2013-06-23 01:38:00,51.9,52.0,29.81,SE,143,0.0,-999.0,100,-99.99,,,0.00,weatherlink.com 1.10,2013-06-23 08:38:00,
2013-06-23 01:53:00,51.9,52.0,29.81,SE,143,0.0,-999.0,100,-99.99,,,0.00,weatherlink.com 1.10,2013-06-23 08:53:00,
2013-06-23 02:08:00,51.9,52.0,29.81,SE,143,0.0,-999.0,100,-99.99,,,0.00,weatherlink.com 1.10,2013-06-23 09:08:00,
2013-06-23 02:23:00,51.9,52.0,29.81,SE,143,0.0,-999.0,100,-99.99,,,0.00,weatherlink.com 1.10,2013-06-23 09:23:00,
2013-06-23 02:38:00,51.9,52.0,29.81,SE,143,0.0,-999.0,100,-99.99,,,0.00,weatherlink.com 1.10,2013-06-23 09:38:00,
2013-06-23 02:53:00,51.9,52.0,29.80,SE,143,0.0,-999.0,100,-99.99,,,0.00,weatherlink.com 1.10,2013-06-23 09:53:00,
2013-06-23 03:08:00,51.7,52.0,29.80,SE,143,0.0,-999.0,100,-99.99,,,0.00,weatherlink.com 1.10,2013-06-23 10:08:00,
2013-06-23 03:23:00,51.6,52.0,29.79,SE,143,0.0,-999.0,100,-99.99,,,0.00,weatherlink.com 1.10,2013-06-23 10:23:00,
2013-06-23 03:38:00,51.4,51.0,29.80,SE,143,0.0,-999.0,100,-99.99,,,0.01,weatherlink.com 1.10,2013-06-23 10:38:00,
2013-06-23 03:53:00,51.3,51.0,29.79,SE,143,0.0,-999.0,100,-99.99,,,0.01,weatherlink.com 1.10,2013-06-23 10:53:00,
2013-06-23 04:08:00,51.0,51.0,29.79,SE,143,0.0,-999.0,100,-99.99,,,0.01,weatherlink.com 1.10,2013-06-23 11:08:00,
2013-06-23 04:23:00,50.8,51.0,29.78,SE,143,0.0,-999.0,100,-99.99,,,0.01,weatherlink.com 1.10,2013-06-23 11:23:00,
2013-06-23 04:38:00,50.4,50.0,29.77,SE,143,0.0,-999.0,100,-99.99,,,0.01,weatherlink.com 1.10,2013-06-23 11:38:00,
2013-06-23 04:53:00,50.1,50.0,29.78,SE,143,0.0,-999.0,100,-99.99,,,0.01,weatherlink.com 1.10,2013-06-23 11:53:00,
2013-06-23 05:08:00,49.8,50.0,29.77,SE,143,0.0,-999.0,100,-99.99,,,0.01,weatherlink.com 1.10,2013-06-23 12:08:00,
2013-06-23 05:23:00,50.1,50.0,29.77,SE,143,0.0,-999.0,100,-99.99,,,0.01,weatherlink.com 1.10,2013-06-23 12:23:00,
2013-06-23 05:38:00,49.9,50.0,29.77,SE,143,0.0,-999.0,100,-99.99,,,0.01,weatherlink.com 1.10,2013-06-23 12:38:00,
2013-06-23 05:53:00,50.1,50.0,29.77,SE,143,0.0,-999.0,100,-99.99,,,0.01,weatherlink.com 1.10,2013-06-23 12:53:00,
2013-06-23 06:08:00,50.4,50.0,29.77,SE,143,0.0,-999.0,100,-99.99,,,0.01,weatherlink.com 1.10,2013-06-23 13:08:00,
2013-06-23 06:23:00,51.0,51.0,29.75,SE,143,0.0,-999.0,100,-99.99,,,0.01,weatherlink.com 1.10,2013-06-23 13:23:00,
2013-06-23 06:38:00,51.1,51.0,29.75,SE,143,0.0,-999.0,100,-99.99,,,0.01,weatherlink.com 1.10,2013-06-23 13:38:00,
2013-06-23 06:53:00,51.3,51.0,29.75,SE,143,0.0,-999.0,100,-99.99,,,0.01,weatherlink.com 1.10,2013-06-23 13:53:00,
2013-06-23 07:08:00,51.6,52.0,29.75,SE,143,0.0,-999.0,100,-99.99,,,0.01,weatherlink.com 1.10,2013-06-23 14:08:00,
2013-06-23 07:23:00,52.3,52.0,29.75,SE,143,0.0,-999.0,100,-99.99,,,0.01,weatherlink.com 1.10,2013-06-23 14:23:00,
2013-06-23 07:38:00,53.1,53.0,29.74,SE,143,0.0,-999.0,100,-99.99,,,0.01,weatherlink.com 1.10,2013-06-23 14:38:00,
2013-06-23 07:53:00,53.3,53.0,29.74,SE,143,0.0,-999.0,100,-99.99,,,0.01,weatherlink.com 1.10,2013-06-23 14:53:00,
2013-06-23 08:08:00,54.4,54.0,29.73,SE,143,0.0,-999.0,100,-99.99,,,0.01,weatherlink.com 1.10,2013-06-23 15:08:00,
2013-06-23 08:23:00,55.6,56.0,29.74,SE,143,0.0,-999.0,100,-99.99,,,0.01,weatherlink.com 1.10,2013-06-23 15:23:00,
2013-06-23 08:38:00,56.7,57.0,29.73,West,270,0.0,-999.0,100,-99.99,,,0.01,weatherlink.com 1.10,2013-06-23 15:38:00,
2013-06-23 08:53:00,56.9,57.0,29.73,West,268,4.0,-999.0,100,-99.99,,,0.01,weatherlink.com 1.10,2013-06-23 15:53:00,
2013-06-23 09:08:00,56.7,57.0,29.73,West,272,4.0,-999.0,100,-99.99,,,0.01,weatherlink.com 1.10,2013-06-23 16:08:00,
2013-06-23 09:23:00,57.2,57.0,29.73,WSW,257,6.0,-999.0,100,-99.99,,,0.01,weatherlink.com 1.10,2013-06-23 16:23:00,
2013-06-23 09:38:00,57.5,58.0,29.72,SSW,212,0.0,-999.0,100,-99.99,,,0.01,weatherlink.com 1.10,2013-06-23 16:38:00,
2013-06-23 09:53:00,58.7,56.0,29.72,SW,227,1.0,-999.0,89,-99.99,,,0.01,weatherlink.com 1.10,2013-06-23 16:53:00,
2013-06-23 10:08:00,59.9,51.0,29.71,WSW,251,0.0,-999.0,72,-99.99,,,0.01,weatherlink.com 1.10,2013-06-23 17:08:00,
2013-06-23 10:23:00,61.2,52.0,29.70,West,263,5.0,-999.0,73,-99.99,,,0.01,weatherlink.com 1.10,2013-06-23 17:23:00,
2013-06-23 10:38:00,61.8,55.0,29.69,West,274,1.0,-999.0,79,-99.99,,,0.01,weatherlink.com 1.10,2013-06-23 17:38:00,
2013-06-23 10:53:00,60.5,53.0,29.69,WSW,243,5.0,-999.0,76,-99.99,,,0.01,weatherlink.com 1.10,2013-06-23 17:53:00,
2013-06-23 11:08:00,60.4,51.0,29.69,WNW,282,0.0,-999.0,71,-99.99,,,0.01,weatherlink.com 1.10,2013-06-23 18:08:00,
2013-06-23 11:23:00,62.1,50.0,29.68,WSW,239,3.0,-999.0,65,-99.99,,,0.01,weatherlink.com 1.10,2013-06-23 18:23:00,
2013-06-23 11:38:00,63.5,48.0,29.67,West,263,3.0,-999.0,58,-99.99,,,0.01,weatherlink.com 1.10,2013-06-23 18:38:00,
2013-06-23 11:53:00,63.7,47.0,29.66,SW,215,5.0,-999.0,54,-99.99,,,0.01,weatherlink.com 1.10,2013-06-23 18:53:00,
2013-06-23 12:08:00,64.7,48.0,29.66,WSW,250,1.0,-999.0,56,-99.99,,,0.01,weatherlink.com 1.10,2013-06-23 19:08:00,
2013-06-23 12:23:00,65.5,45.0,29.65,WSW,254,2.0,-999.0,48,-99.99,,,0.01,weatherlink.com 1.10,2013-06-23 19:23:00,
2013-06-23 12:38:00,65.5,45.0,29.64,SE,136,0.0,-999.0,47,-99.99,,,0.01,weatherlink.com 1.10,2013-06-23 19:38:00,
2013-06-23 12:53:00,67.3,45.0,29.64,WSW,256,7.0,-999.0,44,-99.99,,,0.01,weatherlink.com 1.10,2013-06-23 19:53:00,
2013-06-23 13:08:00,66.8,43.0,29.62,SW,230,0.0,-999.0,42,-99.99,,,0.01,weatherlink.com 1.10,2013-06-23 20:08:00,
2013-06-23 13:23:00,68.3,44.0,29.62,WSW,250,0.0,-999.0,41,-99.99,,,0.01,weatherlink.com 1.10,2013-06-23 20:23:00,
2013-06-23 13:38:00,66.6,47.0,29.61,SSW,203,6.0,-999.0,49,-99.99,,,0.01,weatherlink.com 1.10,2013-06-23 20:38:00,
2013-06-23 13:53:00,66.6,44.0,29.61,South,178,0.0,-999.0,45,-99.99,,,0.01,weatherlink.com 1.10,2013-06-23 20:53:00,
2013-06-23 14:09:00,68.8,46.0,29.61,NNW,333,6.0,-999.0,45,-99.99,,,0.01,weatherlink.com 1.10,2013-06-23 21:09:00,
2013-06-23 14:24:00,68.4,47.0,29.60,West,271,0.0,-999.0,47,-99.99,,,0.01,weatherlink.com 1.10,2013-06-23 21:24:00,
2013-06-23 14:39:00,68.4,47.0,29.60,SSW,193,5.0,-999.0,47,-99.99,,,0.01,weatherlink.com 1.10,2013-06-23 21:39:00,
2013-06-23 14:54:00,68.6,49.0,29.59,WSW,241,3.0,-999.0,49,-99.99,,,0.01,weatherlink.com 1.10,2013-06-23 21:54:00,
2013-06-23 15:09:00,66.8,44.0,29.59,SW,226,3.0,-999.0,44,-99.99,,,0.01,weatherlink.com 1.10,2013-06-23 22:09:00,
2013-06-23 15:24:00,66.6,46.0,29.59,WSW,250,0.0,-999.0,47,-99.99,,,0.01,weatherlink.com 1.10,2013-06-23 22:24:00,
2013-06-23 15:39:00,66.8,46.0,29.59,WSW,257,0.0,-999.0,47,-99.99,,,0.01,weatherlink.com 1.10,2013-06-23 22:39:00,
2013-06-23 15:54:00,66.6,45.0,29.58,WSW,257,0.0,-999.0,46,-99.99,,,0.01,weatherlink.com 1.10,2013-06-23 22:54:00,
2013-06-23 16:09:00,66.6,46.0,29.57,WSW,257,0.0,-999.0,47,-99.99,,,0.01,weatherlink.com 1.10,2013-06-23 23:09:00,
2013-06-23 16:24:00,66.6,47.0,29.58,WSW,257,0.0,-999.0,49,-99.99,,,0.01,weatherlink.com 1.10,2013-06-23 23:24:00,
2013-06-23 16:39:00,66.4,52.0,29.57,WSW,257,0.0,-999.0,60,-99.99,,,0.01,weatherlink.com 1.10,2013-06-23 23:39:00,
2013-06-23 16:54:00,66.1,53.0,29.57,WSW,257,0.0,-999.0,62,-99.99,,,0.01,weatherlink.com 1.10,2013-06-23 23:54:00,
2013-06-23 17:09:00,66.0,53.0,29.57,WSW,257,0.0,-999.0,63,-99.99,,,0.01,weatherlink.com 1.10,2013-06-24 00:09:00,
2013-06-23 17:24:00,64.7,50.0,29.57,SW,224,0.0,-999.0,60,-99.99,,,0.01,weatherlink.com 1.10,2013-06-24 00:24:00,
2013-06-23 17:39:00,61.3,57.0,29.57,SE,140,0.0,-999.0,84,-99.99,,,0.01,weatherlink.com 1.10,2013-06-24 00:39:00,
2013-06-23 17:54:00,59.0,57.0,29.59,SSE,147,0.0,-999.0,94,-99.99,,,0.03,weatherlink.com 1.10,2013-06-24 00:54:00,
2013-06-23 18:09:00,57.2,55.0,29.59,ESE,114,0.0,-999.0,93,-99.99,,,0.04,weatherlink.com 1.10,2013-06-24 01:09:00,
2013-06-23 18:24:00,56.3,56.0,29.59,ESE,114,0.0,-999.0,100,-99.99,,,0.05,weatherlink.com 1.10,2013-06-24 01:24:00,
2013-06-23 18:39:00,56.5,57.0,29.59,ESE,114,0.0,-999.0,100,-99.99,,,0.05,weatherlink.com 1.10,2013-06-24 01:39:00,
2013-06-23 18:54:00,56.9,57.0,29.57,ESE,114,0.0,-999.0,100,-99.99,,,0.05,weatherlink.com 1.10,2013-06-24 01:54:00,
2013-06-23 19:09:00,57.2,57.0,29.57,ESE,114,0.0,-999.0,100,-99.99,,,0.05,weatherlink.com 1.10,2013-06-24 02:09:00,
2013-06-23 19:24:00,57.0,57.0,29.56,ESE,114,0.0,-999.0,100,-99.99,,,0.05,weatherlink.com 1.10,2013-06-24 02:24:00,
2013-06-23 19:39:00,57.2,57.0,29.56,ESE,114,0.0,-999.0,100,-99.99,,,0.05,weatherlink.com 1.10,2013-06-24 02:39:00,
2013-06-23 19:54:00,57.0,57.0,29.56,ESE,114,0.0,-999.0,100,-99.99,,,0.05,weatherlink.com 1.10,2013-06-24 02:54:00,
2013-06-23 20:09:00,56.7,57.0,29.55,ESE,114,2.0,-999.0,100,-99.99,,,0.05,weatherlink.com 1.10,2013-06-24 03:09:00,
2013-06-23 20:24:00,56.5,57.0,29.54,ESE,113,1.0,-999.0,100,-99.99,,,0.05,weatherlink.com 1.10,2013-06-24 03:24:00,
2013-06-23 20:39:00,56.5,57.0,29.54,East,83,0.0,-999.0,100,-99.99,,,0.05,weatherlink.com 1.10,2013-06-24 03:39:00,
2013-06-23 20:54:00,56.3,56.0,29.54,East,83,0.0,-999.0,100,-99.99,,,0.06,weatherlink.com 1.10,2013-06-24 03:54:00,
2013-06-23 21:09:00,55.7,56.0,29.54,East,83,0.0,-999.0,100,-99.99,,,0.06,weatherlink.com 1.10,2013-06-24 04:09:00,
2013-06-23 21:24:00,55.1,55.0,29.53,East,82,0.0,-999.0,100,-99.99,,,0.06,weatherlink.com 1.10,2013-06-24 04:24:00,
2013-06-23 21:39:00,54.7,55.0,29.54,East,82,0.0,-999.0,100,-99.99,,,0.06,weatherlink.com 1.10,2013-06-24 04:39:00,
2013-06-23 21:54:00,54.5,55.0,29.53,East,83,0.0,-999.0,100,-99.99,,,0.06,weatherlink.com 1.10,2013-06-24 04:54:00,
2013-06-23 22:09:00,54.4,54.0,29.54,East,83,0.0,-999.0,100,-99.99,,,0.06,weatherlink.com 1.10,2013-06-24 05:09:00,
2013-06-23 22:24:00,54.2,54.0,29.53,East,83,0.0,-999.0,100,-99.99,,,0.06,weatherlink.com 1.10,2013-06-24 05:24:00,
2013-06-23 22:54:00,54.2,54.0,29.52,East,83,0.0,-999.0,100,-99.99,,,0.06,weatherlink.com 1.10,2013-06-24 05:54:00,
2013-06-23 23:24:00,54.2,54.0,29.51,East,83,0.0,-999.0,100,-99.99,,,0.06,weatherlink.com 1.10,2013-06-24 06:24:00,
2013-06-23 23:54:00,54.2,54.0,29.50,East,83,0.0,-999.0,100,-99.99,,,0.06,weatherlink.com 1.10,2013-06-24 06:54:00,